Regional Weather Roundup
Issued by NWS Burlington, VT

Home | Current Version | Previous Version | Text Only | Print | Product List | Glossary On
Versions: 1 2 3 4 5 6 7 8 9 10 11 12 13 14 15 16 17 18 19 20 21 22 23 24 25 26 27 28 29 30 31 32 33 34 35 36 37 38 39 40 41 42 43 44 45 46 47 48 49 50
000
ASUS41 KBTV 302330
RWRBTV
VERMONT REGIONAL WEATHER ROUNDUP
NATIONAL WEATHER SERVICE BURLINGTON VT
600 PM EST FRI JAN 30 2015

NOTE: "FAIR" INDICATES FEW OR NO CLOUDS BELOW 12,000 FEET WITH NO
SIGNIFICANT WEATHER AND/OR OBSTRUCTIONS TO VISIBILITY.

* THESE REPORTS ARE NOT UNDER NWS QUALITY CONTROL AND/OR DO NOT
  REPORT WEATHER SUCH AS PRECIPITATION AND FOG.

VTZ001>019-310000-
_____VERMONT_____


CITY           SKY/WX    TMP DP  RH WIND       PRES   REMARKS
BURLINGTON     LGT SNOW  13   5  70 N10       30.03R WCI   0
MONTPELIER     LGT SNOW  10   5  80 NW16      29.93R WCI  -7
MORRISVILLE    LGT SNOW  13   6  74 N10       29.96R WCI   0
ST. JOHNSBURY*   N/A     16   9  74 MISG      29.87R
LYNDONVILLE*   LGT SNOW  13   7  78 W7        29.89R
MIDDLEBURY*    FLURRIES  14   9  79 N15       29.97R WCI  -1
RUTLAND*       CLOUDY   N/A N/A N/A NW14G25   29.90R
SPRINGFIELD    CLOUDY    22  13  68 NW8       29.85R
HIGHGATE*      FLURRIES  12   4  69 W8        30.05R
NEWPORT*       LGT SNOW  10   6  81 NW13      29.93R WCI  -5
BENNINGTON     LGT SNOW  20  14  77 N10       29.90R WCI   9
GALLUP MILLS*    N/A     12 N/A N/A MISG        N/A
UNION VILLAGE*   N/A     18 N/A N/A MISG        N/A
MT. MANSFIELD*   N/A     -2 N/A N/A CALM        N/A

_____LAKE CHAMPLAIN_____


CITY           SKY/WX    TMP DP  RH WIND       PRES   REMARKS
BURTON ISLAND*   N/A     14   9  79 W20         N/A  WCI  -3
COLCHESTER RF*   N/A     18   7  62 N26         N/A  WCI  -1
DIAMOND ISL*     N/A     16   5  62 NW16        N/A  WCI   0

$$

NYZ007-026>031-035-052-083-310000-
_____NORTHERN NEW YORK_____


CITY           SKY/WX    TMP DP  RH WIND       PRES   REMARKS
PLATTSBURGH    CLOUDY    13   1  59 NW9G21    30.05R
SARANAC LAKE   CLOUDY     5  -1  76 VRB5      29.95R HAZE
MASSENA        CLEAR      9  -3  58 W8        30.17R
OGDENSBURG*    CLEAR      9  -2  61 NW14      30.19R WCI  -8
POTSDAM*       PTCLDY     9   0  66 W7        30.16R
STARK FALLS*     N/A      5 N/A N/A NW8         N/A
WATERTOWN      CLEAR     11  -1  58 N3        30.20R
FT DRUM        CLEAR      6  -4  64 N7        30.15R
ALBANY         MOCLDY    20   9  62 W23G43    29.98R WCI   3
GLENS FALLS    CLOUDY    19   6  57 NW14G24   29.97R WCI   6

$$
NHZ002-005-011-310000-
_____NEW HAMPSHIRE_____


CITY           SKY/WX    TMP DP  RH WIND       PRES   REMARKS
LEBANON        CLOUDY    21  11  65 N14G25    29.86R WCI   8
KEENE          CLOUDY    27  14  59 N12       29.82R WCI  16
MT WASHINGTON  SNOW       5   5 100 N31G38      N/A  VSB 1/16WCI -19
PLYMOUTH       FLURRIES  20  16  86 W14G23    29.81R WCI   6
WHITEFIELD     LGT SNOW  17  12  80 NW12      29.84R VSB 1   WCI   4

$$

_____REGIONAL QUEBEC LOCATIONS_____


CITY           SKY/WX    TMP DP  RH WIND       PRES   REMARKS
MONTREAL       FLURRIES  12   1  62 W13G20    30.06R WCI  -3
QUEBEC CITY    LGT SNOW  19  12  73 NW17G23   29.85R WCI   4
SHERBROOKE     LGT SNOW  12  10  92 W13       29.91R VSB 1   WCI  -3

_____REGIONAL ONTARIO LOCATIONS_____


CITY           SKY/WX    TMP DP  RH WIND       PRES   REMARKS
OTTAWA         PTCLDY     7  -4  61 NW15      30.17R WCI -11

______KEY______
VSB  - VISIBILITY IN MILES
WCI  - WIND CHILL INDEX
HX   - HEAT INDEX
$$
NNNN


USA.gov is the U.S. government's official web portal to all federal, state and local government web resources and services.